Date,TemperatureHighF,TemperatureAvgF,TemperatureLowF,DewpointHighF,DewpointAvgF,DewpointLowF,HumidityHigh,HumidityAvg,HumidityLow,PressureMaxIn,PressureMinIn,WindSpeedMaxMPH,WindSpeedAvgMPH,GustSpeedMaxMPH,PrecipitationSumIn
2013-1-1,14,2,-10,10,-2,-13,89,80,68,0.00,40.00,11,7,15,0.00
2013-1-2,23,12,4,21,9,0,96,88,78,0.00,40.00,17,9,22,0.00
2013-1-3,20,10,6,19,7,3,96,87,78,0.00,40.00,19,15,24,0.00
2013-1-4,24,17,9,16,12,7,92,82,67,0.00,40.00,20,12,29,0.00
2013-1-5,26,18,9,21,15,7,92,88,83,0.00,40.00,19,12,25,0.00
2013-1-6,17,12,5,14,8,3,91,85,70,0.00,40.00,17,10,19,0.00
2013-1-7,32,25,16,25,21,12,97,82,74,0.00,40.00,29,15,34,0.00
2013-1-8,35,25,13,30,23,10,97,91,83,0.00,40.00,24,11,27,0.00
2013-1-9,33,28,22,27,23,19,89,81,70,0.00,40.00,26,13,32,0.00
2013-1-10,36,32,26,34,26,21,98,77,59,0.00,40.00,25,16,31,0.01
2013-1-11,41,37,34,41,36,34,99,98,98,0.00,40.00,21,13,26,0.01
2013-1-12,40,18,8,39,11,0,98,76,66,0.00,40.00,34,19,40,0.00
2013-1-13,10,6,2,3,0,-2,81,76,70,0.00,40.00,17,12,22,0.00
2013-1-14,19,11,4,10,6,0,84,79,65,0.00,40.00,13,8,17,0.00
2013-1-15,29,20,13,18,12,7,79,71,56,0.00,40.00,18,13,25,0.00
2013-1-16,39,26,17,34,22,10,96,83,71,0.00,40.00,22,16,29,0.00
2013-1-17,25,15,6,16,8,1,88,74,55,0.00,40.00,17,9,21,0.00
2013-1-18,42,32,19,32,26,14,90,79,65,0.00,40.00,25,15,34,0.00
2013-1-19,41,28,3,34,23,-2,94,82,70,0.00,40.00,41,20,52,0.00
2013-1-20,12,5,0,3,-2,-6,82,75,59,0.00,40.00,26,15,32,0.00
2013-1-21,0,-5,-11,-6,-11,-17,80,75,70,0.00,40.00,24,18,31,0.00
2013-1-22,8,-1,-9,0,-7,-13,83,75,65,0.00,40.00,12,7,17,0.00
2013-1-23,17,9,-3,12,3,-13,89,78,64,0.00,40.00,29,15,35,0.00
2013-1-24,14,3,-5,5,-5,-13,73,69,63,0.00,40.00,18,11,23,0.00
2013-1-25,22,13,3,16,6,0,84,75,57,0.00,40.00,30,16,38,0.00
2013-1-26,26,13,-1,12,5,-4,87,70,55,0.00,40.00,22,11,29,0.00
2013-1-27,32,29,25,32,23,12,98,80,57,0.00,40.00,22,9,27,0.02
2013-1-28,35,31,30,34,30,28,98,98,98,0.00,40.00,20,-7,23,0.00
2013-1-29,39,33,28,39,32,25,98,95,87,0.00,40.00,25,14,32,0.00
2013-1-30,28,19,9,25,15,5,91,84,79,0.00,40.00,32,24,41,0.00
2013-1-31,9,-2,-8,5,-8,-13,83,75,73,0.00,40.00,27,23,35,0.00
2013-2-1,7,-2,-11,3,-8,-17,84,75,67,0.00,40.00,21,12,26,0.00
2013-2-2,14,9,6,9,4,0,89,80,61,0.00,40.00,15,7,21,0.00
2013-2-3,16,12,5,14,8,1,92,83,69,0.00,40.00,26,12,34,0.00
2013-2-4,21,12,5,12,6,0,92,79,52,0.00,40.00,17,9,20,0.00
2013-2-5,31,22,11,27,20,9,95,89,76,0.00,40.00,22,15,28,0.00
2013-2-6,35,24,11,32,22,9,95,90,78,0.00,40.00,21,10,26,0.00
2013-2-7,34,28,23,32,26,21,98,96,88,0.00,40.00,19,11,23,0.00
2013-2-8,26,23,22,21,20,18,91,86,75,0.00,40.00,19,8,24,0.00
2013-2-9,29,26,24,27,25,21,97,94,91,0.00,40.00,26,20,32,0.00
2013-2-10,37,32,29,36,31,27,99,97,93,0.00,40.00,27,17,34,0.02
2013-2-11,32,24,19,32,20,14,99,88,80,0.00,40.00,35,27,42,0.01
2013-2-12,33,26,18,28,22,14,93,83,73,0.00,40.00,19,11,26,0.00
2013-2-13,37,30,21,34,27,19,94,90,82,0.00,40.00,14,9,19,0.00
2013-2-14,35,29,17,34,25,9,98,84,64,0.00,40.00,24,16,30,0.00
2013-2-15,18,13,7,10,6,3,84,75,67,0.00,40.00,21,14,24,0.00
2013-2-16,24,13,6,12,8,3,88,78,59,0.00,40.00,13,6,17,0.00
2013-2-17,31,22,12,23,17,9,87,79,67,0.00,40.00,29,17,35,0.00
2013-2-18,34,23,5,32,19,0,97,84,76,0.00,40.00,34,21,44,0.00
2013-2-19,5,1,-3,1,-4,-8,87,81,75,0.00,40.00,31,24,38,0.00
2013-2-20,20,6,-5,9,0,-9,81,75,61,0.00,40.00,14,9,18,0.00
2013-2-21,21,14,7,16,9,3,93,79,69,0.00,40.00,22,13,29,0.00
2013-2-22,33,22,18,25,19,16,96,89,64,0.00,40.00,22,11,29,0.01
2013-2-23,23,17,9,19,14,7,96,90,77,0.00,40.00,13,8,17,0.00
2013-2-24,31,21,9,21,15,7,92,77,56,0.00,40.00,10,5,13,0.00
2013-2-25,44,28,21,28,24,21,98,86,47,0.00,40.00,10,4,13,0.00
2013-2-26,33,28,22,27,24,21,98,85,73,0.00,40.00,21,13,27,0.00
2013-2-27,33,29,27,27,25,23,92,84,76,0.00,40.00,23,16,29,0.00
2013-2-28,28,26,24,25,22,19,90,83,78,0.00,40.00,17,13,22,0.00
2013-3-1,26,20,9,19,15,5,90,78,66,0.00,40.00,15,9,20,0.00
2013-3-2,32,16,6,18,10,3,92,77,46,0.00,40.00,8,5,10,0.00
2013-3-3,30,22,15,18,13,7,84,69,52,0.00,40.00,15,9,19,0.00
2013-3-4,28,24,20,23,20,14,97,85,68,0.00,40.00,23,16,30,0.01
2013-3-5,29,24,19,25,22,18,98,92,82,0.00,40.00,16,10,22,0.01
2013-3-6,27,18,7,21,14,5,95,84,65,0.00,40.00,18,10,24,0.01
2013-3-7,29,17,3,21,13,1,94,85,69,0.00,40.00,16,8,20,0.00
2013-3-8,36,27,14,30,23,12,96,88,79,0.00,40.00,21,15,25,0.00
2013-3-9,36,34,32,36,33,30,99,98,90,0.00,40.00,24,16,29,0.07
2013-3-10,34,32,29,34,31,28,99,96,92,0.00,40.00,24,17,34,0.02
2013-3-11,29,26,18,28,24,14,98,92,83,0.00,40.00,24,18,30,0.01
2013-3-12,26,22,16,25,18,12,93,84,69,0.00,40.00,24,17,30,0.00
2013-3-13,27,18,9,18,12,7,92,79,62,0.00,40.00,19,10,24,0.00
2013-3-14,37,28,18,28,24,16,96,84,68,0.00,40.00,16,9,20,0.00
2013-3-15,35,32,27,34,30,27,98,94,89,0.00,40.00,14,9,17,0.00
2013-3-16,32,23,15,32,19,9,98,84,65,0.00,40.00,19,14,22,0.00
2013-3-17,29,19,9,23,12,3,84,75,64,0.00,40.00,26,14,32,0.00
2013-3-18,29,21,10,28,18,9,97,90,80,0.00,40.00,35,23,42,0.01
2013-3-19,21,12,5,10,6,0,91,78,59,0.00,40.00,34,24,42,0.01
2013-3-20,17,10,3,7,2,-2,78,71,62,0.00,40.00,28,21,32,0.00
2013-3-21,30,13,0,12,4,-2,88,68,41,0.00,40.00,11,5,15,0.00
2013-3-22,38,20,5,16,10,3,90,69,37,0.00,40.00,7,4,7,0.00
2013-3-23,43,26,12,23,17,9,91,70,38,0.00,40.00,12,7,16,0.00
2013-3-24,34,27,23,28,23,21,92,86,71,0.00,40.00,18,10,24,0.00
2013-3-25,34,27,19,25,21,16,90,78,64,0.00,40.00,21,15,28,0.00
2013-3-26,38,26,18,28,22,18,97,84,63,0.00,40.00,14,9,16,0.00
2013-3-27,47,32,18,28,19,12,98,62,28,0.00,40.00,7,2,7,0.00
2013-3-28,41,32,23,30,23,14,91,69,55,0.00,40.00,8,4,10,0.00
2013-3-29,45,36,27,39,31,23,92,82,67,0.00,40.00,14,7,17,0.00
2013-3-30,48,40,33,46,37,32,98,89,81,0.00,40.00,21,13,29,0.00
2013-3-31,38,32,26,32,27,19,98,82,62,0.00,40.00,29,19,34,0.01
2013-4-1,33,26,19,21,18,14,81,72,60,0.00,40.00,26,16,30,0.01
2013-4-2,36,28,21,23,20,18,94,74,53,0.00,40.00,17,10,23,0.00
2013-4-3,42,33,23,28,23,19,90,68,52,0.00,40.00,18,10,24,0.00
2013-4-4,50,39,33,41,31,23,88,73,60,0.00,40.00,19,14,25,0.00
2013-4-5,42,35,29,34,28,21,96,77,56,0.00,40.00,21,11,26,0.00
2013-4-6,58,43,36,48,37,27,98,79,63,0.00,40.00,26,19,34,0.01
2013-4-7,49,41,33,43,37,32,97,86,69,0.00,40.00,19,9,24,0.01
2013-4-8,53,45,39,48,43,39,98,93,81,0.00,40.00,19,8,24,0.01
2013-4-9,39,37,35,39,37,34,99,98,97,0.00,40.00,32,20,43,0.13
2013-4-10,35,32,30,34,31,28,98,96,91,0.00,40.00,33,17,45,0.03
2013-4-11,35,32,30,34,31,30,98,96,88,0.00,40.00,26,12,30,0.01
2013-4-12,33,30,27,30,28,27,98,90,78,0.00,40.00,18,13,24,0.01
2013-4-13,38,31,27,30,27,25,97,86,66,0.00,40.00,18,12,23,0.00
2013-4-14,45,34,31,45,32,27,98,92,78,0.00,40.00,24,12,32,0.08
2013-4-15,41,36,33,36,30,27,87,77,69,0.00,40.00,30,17,38,0.02
2013-4-16,47,37,30,34,30,27,91,77,56,0.00,40.00,18,10,22,0.00
2013-4-17,37,35,33,36,32,28,98,89,77,0.00,40.00,22,13,31,0.03
2013-4-18,36,34,30,36,33,30,98,98,96,0.00,40.00,21,14,29,0.02
2013-4-19,35,31,29,30,27,25,96,85,69,0.00,40.00,30,20,37,0.01
2013-4-20,43,34,25,28,21,16,85,62,38,0.00,40.00,14,7,19,0.00
2013-4-21,54,42,32,48,38,27,98,85,64,0.00,40.00,30,17,37,0.02
2013-4-22,48,40,32,46,39,32,98,98,96,0.00,40.00,22,10,29,0.02
2013-4-23,40,33,30,32,28,25,98,84,65,0.00,40.00,24,16,32,0.02
2013-4-24,49,37,27,37,30,25,96,77,45,0.00,40.00,25,5,37,0.00
2013-4-25,51,38,30,34,29,23,95,72,36,0.00,40.00,22,12,29,0.00
2013-4-26,70,56,42,48,41,32,81,58,35,0.00,40.00,32,17,47,0.00
2013-4-27,69,56,45,52,47,45,97,74,45,0.00,40.00,16,12,21,0.00
2013-4-28,75,60,45,50,47,43,95,66,39,0.00,40.00,21,12,29,0.00
2013-4-29,71,62,51,59,55,50,97,78,57,0.00,40.00,16,7,21,0.00
2013-4-30,74,64,49,59,52,43,96,70,43,0.00,40.00,22,14,31,0.01
2013-5-1,51,42,34,50,41,34,99,93,81,0.00,40.00,26,17,32,0.02
2013-5-2,33,32,30,32,31,30,100,97,94,0.00,40.00,28,17,37,0.01
2013-5-3,33,31,30,32,30,28,99,97,95,0.00,40.00,21,15,26,0.04
2013-5-4,43,38,32,41,36,32,99,93,81,0.00,40.00,14,8,20,0.04
2013-5-5,59,46,35,54,44,34,97,90,81,0.00,40.00,13,8,17,0.00
2013-5-6,74,58,42,55,48,41,97,74,43,0.00,40.00,7,5,12,0.00
2013-5-7,75,64,49,54,48,45,93,60,37,0.00,40.00,7,3,12,0.00
2013-5-8,77,65,53,57,51,45,92,63,41,0.00,40.00,15,6,22,0.00
2013-5-9,59,54,46,55,53,45,97,96,89,0.00,40.00,19,3,27,0.04
2013-5-10,65,50,40,50,40,-100,97,74,41,0.00,40.00,17,9,24,0.01
2013-5-11,53,46,38,43,33,-100,83,63,43,0.00,40.00,35,22,44,0.00
2013-5-12,56,44,32,34,28,23,83,57,35,0.00,40.00,21,11,32,0.00
2013-5-13,70,55,38,46,34,19,61,44,35,0.00,40.00,23,12,29,0.00
2013-5-14,96,73,54,59,51,39,82,49,26,0.00,40.00,29,14,39,0.00
2013-5-15,76,64,53,52,47,39,83,55,38,0.00,40.00,22,10,26,0.00
2013-5-16,84,66,55,57,31,-100,73,47,28,0.00,40.00,11,-8,14,0.00
2013-5-17,66,57,50,61,51,-100,97,94,69,0.00,40.00,21,12,29,0.09
2013-5-18,79,67,55,66,61,52,96,81,60,0.00,40.00,17,11,24,0.00
2013-5-19,78,67,61,72,64,59,97,90,76,0.00,40.00,29,15,37,0.05
2013-5-20,71,65,59,63,60,55,97,85,62,0.00,40.00,26,14,35,0.05
2013-5-21,62,60,57,59,55,52,96,85,70,0.00,40.00,17,8,22,0.00
2013-5-22,59,56,51,57,54,50,97,94,87,0.00,40.00,16,9,24,0.00
2013-5-23,62,53,45,50,41,32,96,67,35,0.00,40.00,19,-2,26,0.00
2013-5-24,66,54,40,50,42,32,88,63,47,0.00,40.00,17,10,22,0.01
2013-5-25,53,51,49,50,48,45,97,86,77,0.00,40.00,26,17,37,0.01
2013-5-26,53,49,45,50,46,41,98,91,78,0.00,40.00,27,17,35,0.04
2013-5-27,56,53,51,55,53,50,97,97,97,0.00,40.00,22,15,28,0.01
2013-5-28,67,58,52,64,57,52,97,96,86,0.00,40.00,16,0,19,0.01
2013-5-29,76,65,59,70,63,59,97,93,78,0.00,40.00,24,11,29,0.02
2013-5-30,73,67,62,68,64,61,97,90,75,0.00,40.00,29,18,37,0.01
2013-5-31,76,67,57,66,60,52,96,80,44,0.00,40.00,27,18,35,0.02
2013-6-1,70,60,50,61,56,48,96,85,67,0.00,40.00,25,11,31,0.01
2013-6-2,65,53,46,48,44,41,94,71,46,0.00,40.00,24,10,30,0.00
2013-6-3,70,59,49,50,46,43,85,62,43,0.00,40.00,17,7,22,0.00
2013-6-4,59,55,50,55,52,50,97,88,70,0.00,40.00,29,13,35,0.03
2013-6-5,64,56,52,63,55,52,97,96,85,0.00,40.00,12,6,17,0.01
2013-6-6,62,56,53,57,54,52,97,91,79,0.00,40.00,12,8,17,0.00
2013-6-7,68,57,52,55,53,52,96,86,57,0.00,40.00,9,5,11,0.00
2013-6-8,68,60,53,55,54,52,96,80,58,0.00,40.00,12,6,17,0.00
2013-7-10,79,74,63,59,56,54,85,54,43,0.00,40.00,17,9,24,0.00
2013-7-11,83,71,59,61,58,55,91,66,41,0.00,40.00,12,5,15,0.00
2013-7-12,83,73,64,64,61,57,84,66,48,0.00,40.00,21,14,27,0.00
2013-7-13,72,68,62,64,60,57,96,76,58,0.00,40.00,24,12,35,0.02
2013-7-14,84,74,65,68,65,61,91,74,55,0.00,40.00,12,9,20,0.01
2013-7-15,87,75,63,73,67,63,96,78,54,0.00,40.00,9,5,13,0.00
2013-7-16,90,81,73,75,72,68,95,73,51,0.00,40.00,12,7,16,0.00
2013-7-17,91,83,73,73,71,68,95,68,47,0.00,40.00,8,6,13,0.00
2013-7-18,90,82,72,73,71,68,95,70,48,0.00,40.00,17,11,29,0.00
2013-7-19,84,77,66,73,67,59,95,72,45,0.00,40.00,18,10,25,0.01
2013-7-22,87,81,67,75,69,63,84,67,50,0.00,40.00,14,11,23,0.00
2013-7-23,74,65,56,63,56,52,95,72,48,0.00,40.00,14,8,22,0.00
2013-7-24,76,66,54,57,55,52,90,67,48,0.00,40.00,6,3,9,0.00
2013-7-25,80,66,60,66,62,57,98,85,58,0.00,40.00,15,9,21,0.02
2013-7-26,71,64,56,66,58,52,97,81,56,0.00,40.00,20,12,27,0.01
2013-7-27,60,53,49,52,48,45,95,83,55,0.00,40.00,18,9,32,0.00
2013-7-28,70,57,45,54,49,45,96,77,51,0.00,40.00,11,7,17,0.00
2013-7-29,76,64,52,57,54,50,96,71,47,0.00,40.00,9,5,14,0.00
2013-7-30,75,67,59,66,61,55,95,81,67,0.00,40.00,8,4,12,0.00
2013-7-31,79,70,60,68,61,55,97,77,49,0.00,40.00,12,7,18,0.00
2013-8-1,79,66,54,66,58,52,96,78,45,0.00,40.00,10,-21,17,0.00
2013-8-2,75,67,56,63,58,52,96,75,45,0.00,40.00,10,6,17,0.00
2013-8-3,77,65,51,57,52,50,94,67,42,0.00,40.00,9,-9,14,0.00
2013-10-27,27,27,27,27,27,27,94,94,94,0.00,40.00,7,7,9,0.00
2013-10-28,-200,0,200,-100,-100,-100,65,29,11,0.00,40.00,14,8,20,0.00
2013-10-30,50,50,50,48,48,48,95,95,95,0.00,40.00,2,2,9,0.00
2013-11-2,-200,0,200,-100,-100,-100,0,0,100,0.00,40.00,4,4,5,0.00
2013-11-8,27,27,27,25,25,25,88,88,88,0.00,40.00,7,7,8,0.00
2013-11-9,-200,0,200,-100,-100,-100,0,0,100,0.00,40.00,16,16,21,0.00
2013-11-10,41,38,33,32,30,28,81,74,68,0.00,40.00,15,10,19,0.00
2013-11-11,32,32,32,32,32,32,96,96,96,0.00,40.00,16,16,21,0.00
2013-11-13,34,34,34,27,27,27,74,74,74,0.00,40.00,16,16,25,0.00
2013-11-14,30,30,30,23,23,23,76,76,76,0.00,40.00,14,14,18,0.00